Change the Weather History Date:

Thursday, August 29, 2013

  Actual Average Record
Temperature  
Mean Temperature 69 °F 59 °F  
Max Temperature 77 °F 66 °F 83 °F (1944)
Min Temperature 61 °F 52 °F 40 °F (1902)
Degree Days  
Heating Degree Days 0 6  
Month to date heating degree days 68 174  
Since 1 June heating degree days 333 638  
Since 1 July heating degree days 163 371  
Cooling Degree Days 4 0  
Month to date cooling degree days 8 0  
Year to date cooling degree days 12 0  
Since 1 June cooling degree days 8 0  
Growing Degree Days 18 (Base 50)    
Moisture  
Dew Point 64 °F    
Average Humidity 92    
Maximum Humidity 100    
Minimum Humidity 69    
Precipitation  
Precipitation 0.18 in 0.03 in 1.51 in (1983)
Month to date precipitation 0.44 0.56  
Year to date precipitation 17.93 37.18  
Sea Level Pressure  
Sea Level Pressure 29.98 in    
Wind  
Wind Speed 7 mph (SSW)    
Max Wind Speed 21 mph    
Max Gust Speed 28 mph    
Visibility 9 miles    
Events      
T = Trace of Precipitation, MM = Missing Value Source: NWS Daily Summary

Daily Weather History Graph

Daily Weather History Graph

Search for Another Location

Airport or City:

Trip Planner

Search our weather history database for the weather conditions in past years. The results will help you decide how hot, cold, wet, or windy it might be!

Date:

Astronomy

Aug. 29, 2013 Rise Set
Actual Time 6:37 AM PDT 7:56 PM PDT
Civil Twilight 6:08 AM PDT 8:26 PM PDT
Nautical Twilight 5:32 AM PDT 9:01 PM PDT
Astronomical Twilight 4:54 AM PDT 9:39 PM PDT
Moon 12:28 AM PDT 3:35 PM PDT
Length of Visible Light 14h 17m
Length of Day
13h 18m
Last Quarter, 37% of the Moon is Illuminated
Aug 29
Last Quarter
Sep 5
New
Sep 12
First Quarter
Sep 19
Full
Sep 26
Last Quarter

Hourly Weather History & Observations

Time (PDT) Temp. Dew Point Humidity Pressure Visibility Wind Dir Wind Speed Gust Speed Precip Events Conditions
12:15 AM 62.6 °F 60.8 °F 94% 29.92 in 10.0 mi Calm Calm - N/A   Mostly Cloudy
12:35 AM 62.6 °F 60.8 °F 94% 29.90 in 10.0 mi East 4.6 mph - 0.01 in   Overcast
12:55 AM 62.6 °F 60.8 °F 94% 29.90 in 10.0 mi SE 3.5 mph - 0.01 in   Mostly Cloudy
1:15 AM 62.6 °F 62.6 °F 100% 29.90 in 10.0 mi SE 3.5 mph - N/A   Scattered Clouds
1:35 AM 62.6 °F 60.8 °F 94% 29.89 in 10.0 mi SE 4.6 mph - N/A   Mostly Cloudy
1:55 AM 62.6 °F 62.6 °F 100% 29.89 in 10.0 mi Calm Calm - N/A   Mostly Cloudy
2:15 AM 62.6 °F 62.6 °F 100% 29.88 in 10.0 mi SE 3.5 mph - N/A   Overcast
2:35 AM 62.6 °F 62.6 °F 100% 29.88 in 10.0 mi SSE 3.5 mph - N/A   Overcast
2:55 AM 62.6 °F 62.6 °F 100% 29.88 in 10.0 mi Calm Calm - N/A   Overcast
3:15 AM 62.6 °F 62.6 °F 100% 29.89 in 10.0 mi WSW 6.9 mph - N/A   Mostly Cloudy
3:35 AM 60.8 °F 60.8 °F 100% 29.89 in 10.0 mi WSW 6.9 mph - N/A   Overcast
3:55 AM 62.6 °F 62.6 °F 100% 29.88 in 10.0 mi SE 3.5 mph - N/A   Overcast
4:15 AM 62.6 °F 62.6 °F 100% 29.89 in 10.0 mi Calm Calm - N/A   Overcast
4:35 AM 62.6 °F 60.8 °F 94% 29.88 in 10.0 mi ESE 4.6 mph - N/A   Overcast
4:55 AM 62.6 °F 62.6 °F 100% 29.89 in 10.0 mi SE 5.8 mph - N/A   Overcast
5:15 AM 62.6 °F 60.8 °F 94% 29.89 in 10.0 mi SE 4.6 mph - N/A   Overcast
5:35 AM 62.6 °F 62.6 °F 100% 29.88 in 10.0 mi ESE 9.2 mph - N/A   Overcast
5:55 AM 62.6 °F 62.6 °F 100% 29.86 in 7.0 mi East 8.1 mph - 0.03 in   Overcast
6:15 AM 62.6 °F 62.6 °F 100% 29.87 in 10.0 mi South 6.9 mph - 0.04 in   Mostly Cloudy
6:35 AM 62.6 °F 62.6 °F 100% 29.88 in 10.0 mi South 5.8 mph - 0.04 in   Mostly Cloudy
6:55 AM 62.6 °F 62.6 °F 100% 29.89 in 10.0 mi SW 4.6 mph - 0.04 in   Mostly Cloudy
7:15 AM 62.6 °F 62.6 °F 100% 29.90 in 10.0 mi SW 3.5 mph - N/A   Mostly Cloudy
7:35 AM 62.6 °F 62.6 °F 100% 29.91 in 10.0 mi SE 3.5 mph - 0.01 in   Mostly Cloudy
7:55 AM 62.6 °F 60.8 °F 94% 29.91 in 10.0 mi Calm Calm - 0.01 in   Mostly Cloudy
8:15 AM 62.6 °F 62.6 °F 100% 29.92 in 10.0 mi Calm Calm - N/A   Mostly Cloudy
8:35 AM 62.6 °F 62.6 °F 100% 29.93 in 10.0 mi Calm Calm - 0.02 in   Mostly Cloudy
8:55 AM 64.4 °F 64.4 °F 100% 29.93 in 10.0 mi Calm Calm - 0.02 in   Overcast
9:15 AM 64.4 °F 64.4 °F 100% 29.94 in 10.0 mi South 3.5 mph - N/A   Mostly Cloudy
9:35 AM 64.4 °F 64.4 °F 100% 29.94 in 10.0 mi SSW 3.5 mph - 0.01 in   Mostly Cloudy
9:55 AM 64.4 °F 64.4 °F 100% 29.95 in 10.0 mi SSW 4.6 mph - 0.01 in   Mostly Cloudy
10:15 AM 64.4 °F 64.4 °F 100% 29.96 in 10.0 mi South 4.6 mph - N/A   Overcast
10:35 AM 66.2 °F 64.4 °F 94% 29.97 in 10.0 mi South 4.6 mph - N/A   Overcast
10:55 AM 66.2 °F 66.2 °F 100% 29.97 in 10.0 mi ESE 6.9 mph - N/A   Overcast
11:15 AM 64.4 °F 64.4 °F 100% 29.97 in 5.0 mi SE 5.8 mph - 0.03 in   Mostly Cloudy
11:35 AM 66.2 °F 66.2 °F 100% 29.98 in 4.0 mi South 4.6 mph - 0.05 in   Mostly Cloudy
11:55 AM 69.8 °F 68.0 °F 94% 29.98 in 10.0 mi South 12.7 mph 17.3 mph 0.05 in   Overcast
12:15 PM 69.8 °F 68.0 °F 94% 29.98 in 10.0 mi SSW 10.4 mph 20.7 mph N/A   Overcast
12:35 PM 69.8 °F 66.2 °F 88% 29.98 in 10.0 mi SSW 13.8 mph 23.0 mph N/A   Overcast
12:55 PM 71.6 °F 66.2 °F 83% 29.99 in 10.0 mi SW 13.8 mph 23.0 mph N/A   Overcast
1:15 PM 71.6 °F 66.2 °F 83% 30.00 in 10.0 mi SSW 18.4 mph 27.6 mph N/A   Overcast
1:35 PM 71.6 °F 66.2 °F 83% 30.00 in 10.0 mi SSW 19.6 mph 29.9 mph N/A   Overcast
1:55 PM 71.6 °F 66.2 °F 83% 30.01 in 10.0 mi SSW 11.5 mph 21.9 mph N/A   Overcast
2:15 PM 71.6 °F 64.4 °F 78% 30.01 in 10.0 mi SSW 13.8 mph 26.5 mph N/A   Overcast
2:35 PM 75.2 °F 66.2 °F 73% 30.01 in 10.0 mi South 16.1 mph 23.0 mph N/A   Overcast
2:55 PM 75.2 °F 66.2 °F 73% 30.01 in 10.0 mi SW 18.4 mph 21.9 mph N/A   Mostly Cloudy
3:15 PM 75.2 °F 64.4 °F 69% 30.01 in 10.0 mi SW 13.8 mph 20.7 mph N/A   Overcast
3:35 PM 77.0 °F 64.4 °F 65% 30.01 in 10.0 mi SW 13.8 mph 20.7 mph N/A   Overcast
3:55 PM 75.2 °F 64.4 °F 69% 30.02 in 10.0 mi SSW 20.7 mph 27.6 mph N/A   Mostly Cloudy
4:15 PM 75.2 °F 64.4 °F 69% 30.02 in 10.0 mi SSW 15.0 mph 25.3 mph N/A   Mostly Cloudy
4:35 PM 75.2 °F 64.4 °F 69% 30.03 in 10.0 mi SSW 15.0 mph 21.9 mph N/A   Overcast
4:55 PM 75.2 °F 64.4 °F 69% 30.03 in 10.0 mi WSW 12.7 mph 20.7 mph N/A   Overcast
5:15 PM 71.6 °F 64.4 °F 78% 30.03 in 10.0 mi WSW 17.3 mph 24.2 mph N/A   Overcast
5:35 PM 73.4 °F 64.4 °F 73% 30.04 in 10.0 mi WSW 15.0 mph 21.9 mph N/A   Mostly Cloudy
5:55 PM 71.6 °F 64.4 °F 78% 30.04 in 10.0 mi SW 10.4 mph 16.1 mph N/A   Overcast
6:15 PM 71.6 °F 64.4 °F 78% 30.05 in 9.0 mi SW 13.8 mph 19.6 mph N/A   Overcast
6:35 PM 66.2 °F 64.4 °F 94% 30.05 in 10.0 mi SW 12.7 mph 18.4 mph 0.01 in   Overcast
6:55 PM 66.2 °F 64.4 °F 94% 30.05 in 10.0 mi SW 10.4 mph 16.1 mph 0.01 in   Overcast
7:15 PM 66.2 °F 64.4 °F 94% 30.06 in 5.0 mi SSW 10.4 mph - N/A   Overcast
7:35 PM 66.2 °F 66.2 °F 100% 30.06 in 5.0 mi SSW 5.8 mph - N/A   Overcast
7:55 PM 66.2 °F 66.2 °F 100% 30.07 in 5.0 mi SSW 5.8 mph - N/A   Overcast
8:15 PM 66.2 °F 66.2 °F 100% 30.07 in 8.0 mi SSW 9.2 mph - N/A   Overcast
8:35 PM 66.2 °F 64.4 °F 94% 30.08 in 8.0 mi SSW 9.2 mph - N/A   Overcast
8:55 PM 66.2 °F 66.2 °F 100% 30.08 in 8.0 mi SSW 5.8 mph - N/A   Overcast
9:15 PM 66.2 °F 64.4 °F 94% 30.08 in 10.0 mi SSW 4.6 mph - N/A   Overcast
9:35 PM 66.2 °F 64.4 °F 94% 30.09 in 10.0 mi SW 5.8 mph - N/A   Overcast
9:55 PM 66.2 °F 64.4 °F 94% 30.09 in 9.0 mi SW 8.1 mph - N/A   Overcast
10:15 PM 64.4 °F 62.6 °F 94% 30.10 in 8.0 mi WSW 9.2 mph - N/A   Overcast
10:35 PM 64.4 °F 64.4 °F 100% 30.11 in 5.0 mi SW 8.1 mph - N/A   Overcast
10:55 PM 64.4 °F 64.4 °F 100% 30.11 in 10.0 mi SW 6.9 mph - N/A   Overcast
11:15 PM 64.4 °F 64.4 °F 100% 30.11 in 10.0 mi SW 6.9 mph - N/A   Overcast
11:35 PM 64.4 °F 64.4 °F 100% 30.11 in 9.0 mi SSW 5.8 mph - 0.01 in   Overcast
11:55 PM 64.4 °F 64.4 °F 100% 30.11 in 9.0 mi SSW 3.5 mph - 0.01 in   Overcast